Home   Weather   Chengdu   Past weeks

Flag for China Past Weather in Chengdu, Sichuan, China — Yesterday and Last 2 Weeks

57 °F

Passing clouds.

Feels Like: 55 °F
Forecast: 49 / 60 °F
Wind: 10 mph from Northeast

Location: Chengdu Airport

Current Time: Oct 28, 2016 at 10:18:23 PM

Latest Report: Oct 28, 2016 at 9:00 PM

Visibility: N/A

Pressure: 30.33 "Hg

Humidity: 51%

Dew Point: 39 °F

Location of ChengduLocation

Past Weather in Chengdu — Graph


Chengdu Temperature Yesterday

Maximum temperature yesterday: 68 °F (at 11:00 AM)
Minimum temperature yesterday: 63 °F (at 11:00 PM)
Average temperature yesterday: 66 °F

High & Low Weather Summary for the Past Weeks

High81 °F (Oct 17, 4:00 PM)100% (Oct 14, 5:00 AM)30.33 "Hg (Oct 14, 5:00 AM)
Low57 °F (Oct 28, 8:00 PM)42% (Oct 28, 4:00 PM)29.71 "Hg (Oct 25, 3:00 PM)
Average66 °F84%29.97 "Hg
* Reported Oct 13 9:00 PM — Oct 28 9:00 PM, Chengdu, Weather by CustomWeather, © 2016

Note: Actual official high and low records may vary slightly from our data, if they occured in-between our weather recording intervals... More about our weather records


Chengdu Weather History for the Previous 24 Hours

Scroll right to see more
Time TempWeatherWind HumidityBarometerVisibility
9:00 PM
Fri, Oct 28
57 °FPassing clouds.10 mph51%30.33 "HgN/A
8:00 PM57 °FPassing clouds.8 mph51%30.30 "HgN/A
7:00 PM59 °FPassing clouds.8 mph48%30.27 "HgN/A
6:00 PM59 °FScattered clouds.8 mph48%30.24 "HgN/A
5:00 PM61 °FScattered clouds.8 mph45%30.21 "HgN/A
4:00 PM63 °FScattered clouds.6 mph42%30.21 "HgN/A
3:00 PM63 °FPassing clouds.1 mph56%30.21 "HgN/A
2:00 PM63 °FSunny.1 mph56%30.24 "Hg10 mi
1:00 PM63 °FSunny.1 mph56%30.27 "Hg10 mi
12:00 PM63 °FPassing clouds.3 mph56%30.30 "HgN/A
11:00 AM61 °FPassing clouds.3 mph68%30.33 "HgN/A
10:00 AM59 °FPassing clouds.3 mph68%30.33 "HgN/A
9:00 AM59 °FPassing clouds.3 mph59%30.30 "HgN/A
8:00 AM61 °FPassing clouds.3 mph48%30.27 "HgN/A
7:00 AM61 °FPassing clouds.6 mph45%30.27 "HgN/A
6:00 AM61 °FPassing clouds.1 mph52%30.21 "HgN/A
5:00 AM63 °FPassing clouds.6 mph45%30.21 "HgN/A
4:00 AM63 °FPassing clouds.8 mph49%30.18 "HgN/A
3:00 AM61 °FPassing clouds.1 mph83%30.18 "HgN/A
2:00 AM63 °FPassing clouds.No wind88%30.18 "Hg5 mi
1:00 AM63 °FPassing clouds.1 mph83%30.15 "Hg5 mi
12:00 AM63 °FPassing clouds.No wind88%30.15 "Hg5 mi
11:00 PM
Thu, Oct 27
63 °FClear.No wind88%30.15 "Hg5 mi
10:00 PM64 °FClear.1 mph78%30.09 "Hg5 mi
Weather by CustomWeather, © 2016

See weather overviewHow to use our weather pages